Location: Rocktram
(38.2574°N, 122.2805°W)
Time: 01:17:40
(UTC+00:00)

ISS - Pass Details

Date: 30 March 2020
Orbit: 417 x 419 km, 51.6° (Epoch: 28 May)

Event Time Altitude Azimuth Distance (km) Brightness Sun altitude
Rises 04:57:46 0° 318° (NW) 2,365 1.2 -28.2°
Reaches altitude 10° 05:00:14 10° 335° (NNW) 1,498 -0.3 -28.6°
Enters shadow 05:00:47 13° 342° (NNW) 1,338 -0.7 -28.7°
